sat.trackr.live / text

‹ back to catalog

STARLINK-32430

NORAD 62207 · 2024-229R

PAYLOAD ACTIVE UNKNOWN

§ Identity

Operator
Country
US
Launch date
2024-12-04
Launch site
AFETR
Launch vehicle
Mass (kg)
RCS (m²)

Purposes: comms

External: N2YO · Heavens-Above · Gunter

§ Orbital elements

Epoch: 2026-09-21T22:36:38.447424Z

Period
94.27 min
Inclination
43.0001°
Eccentricity
0.0001441
Mean motion
15.27597686 rev/d
Perigee alt
482.0 km
Apogee alt
484.0 km
Semi-major
6,861.1 km
B*
4.0591e-4
RAAN
239.1017°
Arg perigee
266.9319°
Mean anomaly
93.1367°
Rev number
10,061

§ Raw data

STARLINK-324301 62207U 24229R   26264.94211166  .00010930  00000+0  40591-3 0  99902 62207  43.0001 239.1017 0001441 266.9319  93.1367 15.27597686100619

JSON: /api/v1/satellites/62207 · /tle

For live sub-satellite position, see the globe view (requires WebGL).

§ Visibility from observer

Set your observer location to see the next 7 days of passes ≥ 10°. The values pass through the URL so the page stays shareable.

No JS? Fill the form by hand. The geolocation button needs JavaScript.